| time (UTC) | temp C | wind direction | speed KPH | gust KPH | rain 1hr cm | rain 24hr cm | rain mn cm | humidity % | barometer mb |
| 20260502123002 | 2 | 134 | 1.6 | 4.8 | 0.00 | 0.00 | 0.00 | 67 | 1017.7 |
| 20260502121502 | 2 | 134 | 1.6 | 4.8 | 0.00 | 0.00 | 0.00 | 64 | 1017.6 |
| 20260502113058 | 2 | 134 | 0.0 | 1.6 | 0.00 | 0.00 | 0.00 | 62 | 1017.5 |
| 20260502111556 | 2 | 134 | 0.0 | 1.6 | 0.00 | 0.00 | 0.00 | 59 | 1017.5 |
| 20260502110059 | 3 | 134 | 0.0 | 4.8 | 0.00 | 0.00 | 0.00 | 56 | 1017.6 |
| 20260502103100 | 3 | 134 | 1.6 | 4.8 | 0.00 | 0.00 | 0.00 | 55 | 1017.6 |
| 20260502101620 | 3 | 134 | 0.0 | 3.2 | 0.00 | 0.00 | 0.00 | 60 | 1017.5 |
| 20260502100115 | 3 | 134 | 3.2 | 6.4 | 0.00 | 0.00 | 0.00 | 60 | 1017.5 |
| 20260502070047 | 6 | 134 | 0.0 | 0.0 | 0.00 | 0.00 | 0.00 | 49 | 1017.7 |
| 20260502063039 | 5 | 134 | 0.0 | 1.6 | 0.00 | 0.00 | 0.00 | 58 | 1017.5 |
| 20260502061536 | 5 | 134 | 0.0 | 1.6 | 0.00 | 0.00 | 0.00 | 51 | 1017.4 |
| 20260502060034 | 6 | 134 | 4.8 | 8.0 | 0.00 | 0.00 | 0.00 | 49 | 1017.2 |
| 20260502053027 | 6 | 134 | 0.0 | 1.6 | 0.00 | 0.00 | 0.00 | 56 | 1017.3 |
| 20260502051530 | 7 | 134 | 0.0 | 1.6 | 0.00 | 0.00 | 0.00 | 50 | 1017.1 |
| 20260502050022 | 8 | 134 | 0.0 | 6.4 | 0.00 | 0.00 | 0.00 | 41 | 1017.1 |
| 20260502043019 | 8 | 134 | 1.6 | 9.7 | 0.00 | 0.00 | 0.00 | 39 | 1016.9 |
| 20260502041518 | 9 | 134 | 6.4 | 11.3 | 0.00 | 0.00 | 0.00 | 37 | 1016.7 |
| 20260502040030 | 9 | 134 | 4.8 | 11.3 | 0.00 | 0.00 | 0.00 | 38 | 1016.6 |
| 20260502033015 | 8 | 134 | 4.8 | 9.7 | 0.00 | 0.00 | 0.00 | 39 | 1016.5 |
| 20260502031515 | 9 | 134 | 4.8 | 9.7 | 0.00 | 0.00 | 0.00 | 38 | 1016.2 |
| 20260502030015 | 8 | 134 | 8.0 | 11.3 | 0.00 | 0.00 | 0.00 | 36 | 1016.0 |
| 20260502023011 | 10 | 134 | 6.4 | 9.7 | 0.00 | 0.00 | 0.00 | 34 | 1015.6 |
| 20260502021507 | 11 | 134 | 3.2 | 4.8 | 0.00 | 0.00 | 0.00 | 30 | 1015.5 |
| 20260502020006 | 11 | 134 | 0.0 | 3.2 | 0.00 | 0.00 | 0.00 | 35 | 1015.4 |
| 20260502013002 | 12 | 134 | 0.0 | 4.8 | 0.00 | 0.00 | 0.00 | 39 | 1015.4 |
| 20260502011604 | 12 | 134 | 1.6 | 6.4 | 0.00 | 0.00 | 0.00 | 39 | 1015.4 |
| 20260502010057 | 13 | 134 | 0.0 | 4.8 | 0.00 | 0.00 | 0.00 | 42 | 1015.4 |
| 20260502004658 | 13 | 134 | 0.0 | 3.2 | 0.00 | 0.00 | 0.00 | 42 | 1015.5 |
| 20260502003055 | 12 | 134 | 0.0 | 4.8 | 0.00 | 0.00 | 0.00 | 41 | 1015.6 |
| 20260502001553 | 13 | 134 | 0.0 | 3.2 | 0.00 | 0.00 | 0.00 | 45 | 1015.7 |
| 20260502000051 | 13 | 134 | 0.0 | 4.8 | 0.00 | 0.00 | 0.00 | 44 | 1015.9 |
| 20260501234653 | 13 | 134 | 0.0 | 4.8 | 0.00 | 0.00 | 0.00 | 47 | 1016.0 |
| 20260501233051 | 13 | 134 | 0.0 | 8.0 | 0.00 | 0.00 | 0.00 | 51 | 1016.2 |
| 20260501231553 | 14 | 134 | 3.2 | 6.4 | 0.00 | 0.00 | 0.00 | 35 | 1016.2 |
| 20260501230047 | 14 | 134 | 0.0 | 6.4 | 0.00 | 0.00 | 0.00 | 32 | 1016.3 |
| 20260501224644 | 14 | 134 | 1.6 | 6.4 | 0.00 | 0.00 | 0.00 | 30 | 1016.4 |
| 20260501223104 | 14 | 134 | 1.6 | 6.4 | 0.00 | 0.00 | 0.00 | 30 | 1016.6 |
| 20260501221538 | 14 | 134 | 1.6 | 6.4 | 0.00 | 0.00 | 0.00 | 30 | 1016.7 |
| 20260501220036 | 13 | 134 | 1.6 | 8.0 | 0.00 | 0.00 | 0.00 | 39 | 1017.0 |
| 20260501214637 | 12 | 134 | 3.2 | 9.7 | 0.00 | 0.00 | 0.00 | 43 | 1017.5 |
| 20260501213033 | 12 | 134 | 4.8 | 9.7 | 0.00 | 0.00 | 0.00 | 36 | 1017.5 |
| 20260501211533 | 13 | 134 | 1.6 | 6.4 | 0.00 | 0.00 | 0.00 | 36 | 1017.8 |
| 20260501210032 | 13 | 134 | 1.6 | 6.4 | 0.00 | 0.00 | 0.00 | 31 | 1017.9 |
| 20260501204633 | 13 | 134 | 1.6 | 8.0 | 0.00 | 0.00 | 0.00 | 36 | 1018.1 |
| 20260501203049 | 12 | 134 | 3.2 | 8.0 | 0.00 | 0.00 | 0.00 | 41 | 1018.1 |
| 20260501201531 | 13 | 134 | 1.6 | 4.8 | 0.00 | 0.00 | 0.00 | 30 | 1018.3 |
| 20260501200033 | 13 | 134 | 1.6 | 6.4 | 0.00 | 0.00 | 0.00 | 45 | 1018.4 |
| 20260501194627 | 12 | 134 | 1.6 | 6.4 | 0.00 | 0.00 | 0.00 | 41 | 1018.5 |
| 20260501193031 | 12 | 134 | 1.6 | 4.8 | 0.00 | 0.00 | 0.00 | 39 | 1018.5 |
| 20260501191527 | 11 | 134 | 1.6 | 4.8 | 0.00 | 0.00 | 0.00 | 50 | 1018.8 |
| 20260501190033 | 11 | 134 | 3.2 | 6.4 | 0.00 | 0.00 | 0.00 | 50 | 1019.0 |
| 20260501184628 | 11 | 134 | 1.6 | 6.4 | 0.00 | 0.00 | 0.00 | 36 | 1019.2 |
| 20260501183026 | 11 | 134 | 1.6 | 6.4 | 0.00 | 0.00 | 0.00 | 35 | 1019.3 |
| 20260501181521 | 10 | 134 | 3.2 | 8.0 | 0.00 | 0.00 | 0.00 | 37 | 1019.4 |
| 20260501180024 | 10 | 134 | 1.6 | 8.0 | 0.00 | 0.00 | 0.00 | 41 | 1019.6 |
| 20260501174620 | 10 | 134 | 1.6 | 6.4 | 0.00 | 0.00 | 0.00 | 39 | 1019.8 |
| 20260501173022 | 8 | 134 | 3.2 | 9.7 | 0.00 | 0.00 | 0.00 | 42 | 1019.8 |
| 20260501171522 | 8 | 134 | 1.6 | 8.0 | 0.00 | 0.00 | 0.00 | 48 | 1019.9 |
| 20260501170021 | 7 | 134 | 3.2 | 6.4 | 0.00 | 0.00 | 0.00 | 52 | 1019.9 |
| 20260501164620 | 7 | 134 | 1.6 | 6.4 | 0.00 | 0.00 | 0.00 | 59 | 1019.9 |
| 20260501163017 | 6 | 134 | 1.6 | 8.0 | 0.00 | 0.00 | 0.00 | 66 | 1019.9 |
| 20260501161520 | 6 | 134 | 3.2 | 8.0 | 0.00 | 0.00 | 0.00 | 73 | 1019.9 |
| 20260501160016 | 5 | 134 | 3.2 | 8.0 | 0.00 | 0.00 | 0.00 | 72 | 1020.1 |
| 20260501154616 | 5 | 134 | 3.2 | 6.4 | 0.00 | 0.00 | 0.00 | 74 | 1020.2 |
| 20260501153021 | 5 | 134 | 1.6 | 8.0 | 0.00 | 0.00 | 0.00 | 75 | 1020.2 |
| 20260501151530 | 5 | 134 | 1.6 | 6.4 | 0.00 | 0.00 | 0.00 | 76 | 1020.2 |
| 20260501150017 | 5 | 134 | 1.6 | 6.4 | 0.00 | 0.00 | 0.00 | 73 | 1020.3 |
| 20260501144617 | 5 | 134 | 0.0 | 3.2 | 0.00 | 0.00 | 0.00 | 72 | 1020.3 |
| 20260501143016 | 5 | 134 | 0.0 | 3.2 | 0.00 | 0.00 | 0.00 | 71 | 1020.3 |